Wind_Speed
47 49 50 46 37 37 37 39 40 40 41 43 44 45 45 46 47 50 47 42 39 34 31 31 33 31 32 33 33 34 31 31 28 31 29 29 30 30 29 33 40 46 53
45 48 48 47 39 37 38 38 39 40 40 40 41 42 42 44 44 47 49 46 39 37 37 34 34 34 34 32 33 33 34 34 31 33 31 29 29 29 28 32 39 44 50
45 47 47 47 44 39 38 37 38 39 39 40 40 41 43 45 47 48 49 52 49 41 38 39 37 36 31 33 31 34 33 31 32 33 36 32 30 29 28 29 34 41 47
44 45 45 46 45 43 41 40 40 40 40 40 42 44 46 47 49 51 54 53 49 44 43 41 41 40 35 33 27 26 31 33 31 33 35 34 31 29 27 26 27 33 41
44 45 45 44 44 44 43 43 43 43 43 44 45 47 49 50 54 59 61 58 48 47 46 45 44 38 31 29 30 28 29 27 31 31 32 34 30 27 26 25 27 30 34
45 44 44 45 45 44 45 44 44 45 46 48 49 51 52 55 58 60 64 59 51 48 50 45 42 41 38 33 33 28 21 21 23 30 28 30 27 25 24 22 24 27 32
45 45 44 45 46 46 45 46 46 47 48 51 54 56 57 59 62 64 66 58 51 54 51 50 45 41 38 34 25 24 20 16 16 22 23 26 25 23 22 19 22 31 33
44 45 45 45 45 46 47 47 48 50 51 53 55 59 60 61 65 68 70 60 54 54 54 52 45 40 37 30 25 24 18 11 11 16 20 22 20 19 18 19 23 34 33
45 46 46 46 47 47 47 48 50 51 52 54 56 58 61 65 68 69 71 64 56 56 57 52 46 41 37 30 22 18 13 4 7 9 13 14 13 14 14 18 25 35 33
46 47 47 47 47 47 48 50 51 51 52 53 54 56 60 65 68 69 72 71 58 57 58 50 45 39 32 29 26 18 15 9 3 7 10 10 11 14 16 20 27 36 32
46 46 47 48 50 50 50 50 50 51 53 53 53 55 58 62 66 70 73 75 63 58 58 52 46 41 29 32 24 19 11 8 2 3 3 6 10 11 16 21 30 35 32
45 49 50 49 48 50 51 51 51 51 52 53 54 55 57 60 65 71 74 77 70 57 55 55 48 44 35 33 26 20 15 8 5 1 2 5 8 11 17 23 35 35 31
46 49 51 51 49 48 49 51 51 52 53 53 55 58 59 60 64 70 74 76 74 59 59 58 50 47 41 35 30 23 18 14 10 6 3 7 9 13 20 29 36 34 31
45 47 50 51 51 49 49 49 51 52 53 55 54 56 59 61 63 67 72 74 77 62 60 58 52 49 43 40 35 29 22 17 13 9 6 9 14 19 24 36 36 34 30
45 48 50 52 53 53 50 49 51 52 53 55 56 56 58 60 63 66 70 74 75 69 58 59 55 53 47 46 41 34 27 21 17 13 11 13 16 23 35 40 36 32 29
45 47 50 53 54 55 55 53 53 54 55 56 57 56 56 59 61 64 67 71 73 74 55 58 56 53 50 51 50 42 34 27 22 19 17 19 23 33 39 37 33 29 28
44 48 51 52 54 57 55 54 53 55 55 56 56 55 54 55 57 60 63 66 69 72 62 62 57 54 52 55 55 50 42 37 33 30 29 30 34 38 37 34 31 28 26
44 47 49 52 54 55 56 55 51 53 55 56 55 54 53 53 55 56 58 60 65 70 70 60 58 53 52 53 53 51 47 44 40 38 36 37 37 33 30 28 27 26 27
42 45 48 50 53 55 56 55 52 52 54 55 55 52 51 51 52 52 54 57 62 66 69 65 58 54 51 48 47 47 45 44 42 39 36 32 29 26 25 24 24 23 24
40 43 46 49 51 53 56 56 54 51 53 53 54 53 53 51 50 51 52 55 58 61 65 68 61 55 48 45 42 41 41 39 37 34 31 28 25 22 21 19 18 17 19
38 41 44 45 47 51 54 55 54 52 54 53 53 54 54 54 53 52 52 52 54 57 59 61 63 56 50 43 38 35 35 35 34 32 30 27 23 20 17 14 13 12 13
36 39 42 43 44 48 51 53 54 52 54 53 53 53 53 54 52 51 51 52 52 53 55 56 58 59 52 43 39 35 33 32 32 31 29 27 25 22 19 17 14 12 11
34 37 40 42 44 46 49 52 53 52 53 52 52 50 51 55 57 55 52 51 51 50 50 51 53 55 55 52 38 35 33 31 30 30 29 28 26 23 20 18 15 13 13
31 35 38 41 42 44 47 50 51 50 49 51 53 51 52 54 57 59 56 53 50 49 48 47 48 50 51 51 50 41 29 30 28 27 27 28 26 23 21 19 17 15 14
31 33 36 39 42 43 45 47 49 49 46 47 50 50 49 51 55 57 59 58 54 50 47 46 45 45 46 48 48 48 47 37 24 26 25 25 26 24 22 21 18 17 15
29 31 34 38 41 43 44 46 48 48 46 46 45 47 47 48 51 55 57 58 57 57 53 48 45 44 43 43 44 45 44 44 42 26 20 23 25 26 23 23 21 18 18
Wind_Direction
348 350 352 353 346 348 349 351 350 350 353 354 354 351 350 347 345 342 344 343 336 335 339 339 335 330 312 289 277 272 270 266 256 257 250 248 246 246 244 244 236 225 222
351 354 358 360 353 349 349 350 351 352 353 354 353 350 348 350 346 345 345 345 340 334 334 333 332 328 321 314 285 269 267 264 258 251 253 248 247 250 249 244 238 230 224
355 357 3 7 6 360 356 354 355 355 355 354 351 351 351 354 352 354 354 348 345 340 332 327 321 321 318 321 303 277 266 264 258 250 248 247 249 252 254 250 242 234 229
359 360 3 9 12 12 9 7 4 2 360 358 357 358 357 356 357 359 360 352 346 342 339 332 330 319 314 314 304 302 276 265 259 251 245 244 247 252 255 252 241 230 227
2 2 5 8 11 13 14 14 12 9 7 6 5 3 360 357 359 4 3 357 352 352 348 339 333 334 326 310 305 299 292 273 255 249 242 239 241 248 251 247 233 228 222
5 5 6 9 12 13 14 16 15 13 10 10 9 7 5 4 3 4 2 0 358 357 351 347 346 338 330 314 318 309 289 282 258 241 237 231 232 242 248 244 229 216 206
6 6 7 9 11 14 14 14 14 13 12 11 9 7 7 7 6 6 3 3 3 1 357 355 348 343 336 340 335 333 321 278 259 227 224 222 227 237 243 235 216 201 199
8 8 8 7 8 9 11 11 12 12 12 12 11 8 6 8 8 9 6 5 6 5 3 360 358 349 348 347 343 339 334 274 226 213 209 212 223 236 236 222 209 194 193
13 12 10 8 8 7 6 5 6 6 7 8 9 8 5 9 11 8 9 7 10 7 5 4 4 0 359 1 6 5 1 309 210 191 197 208 225 221 218 205 198 189 187
18 17 15 13 11 9 7 7 7 7 6 7 6 5 6 8 10 8 9 10 12 11 5 8 9 10 13 23 18 19 29 33 79 156 184 208 218 212 197 192 189 184 182
15 16 16 14 13 11 10 8 8 9 9 8 7 6 6 8 8 10 10 13 11 12 12 13 15 16 11 11 7 6 20 27 40 153 203 219 202 202 190 185 179 180 176
16 16 16 15 14 12 10 9 8 8 8 9 9 9 8 9 8 11 12 12 11 11 10 15 17 18 14 12 19 20 24 36 33 349 213 183 189 182 173 176 174 172 170
15 13 12 11 10 10 8 8 8 8 7 8 10 9 10 11 10 12 12 13 14 11 14 15 17 20 20 26 26 27 31 36 40 40 114 159 160 166 167 169 167 164 166
12 10 9 9 9 8 10 9 8 7 8 9 11 10 12 11 12 13 13 14 13 12 17 18 21 22 26 28 28 29 34 38 38 43 83 131 149 153 160 161 161 159 161
14 12 10 9 9 10 10 8 7 9 9 11 11 12 13 13 14 13 13 15 15 18 18 19 21 23 29 30 31 33 38 42 46 50 80 118 139 150 154 155 153 154 158
13 10 9 9 7 8 9 10 9 8 9 11 12 13 14 15 15 14 14 15 17 19 21 23 24 26 32 34 34 36 42 48 54 67 89 111 130 140 147 147 148 149 154
11 9 9 8 8 8 10 10 7 8 10 12 13 14 15 16 17 16 15 17 17 21 26 27 26 29 35 37 36 39 47 56 64 76 92 109 124 135 139 142 145 147 154
9 8 8 8 8 8 10 11 11 10 9 10 12 15 16 17 18 18 17 19 19 23 25 29 30 34 37 40 40 43 52 61 70 81 93 105 114 120 128 137 143 147 154
7 7 8 8 8 9 8 9 13 12 10 11 12 14 16 19 20 18 19 21 23 23 26 29 33 35 40 43 46 48 53 62 70 78 86 94 101 110 120 131 140 146 151
6 7 7 8 8 8 9 9 12 13 13 13 11 13 17 19 21 22 22 24 25 26 27 28 31 36 41 45 46 49 51 56 60 67 75 81 88 96 106 114 122 132 143
7 7 7 7 7 7 8 9 11 12 13 13 12 13 15 20 21 23 24 25 27 28 29 30 30 33 36 41 46 47 46 48 50 53 57 61 65 73 77 88 103 120 138
7 6 6 6 5 6 8 9 11 13 13 14 14 15 16 20 22 23 24 25 26 28 29 31 32 32 35 34 38 39 42 42 45 46 48 52 56 58 63 70 79 94 116
7 5 7 6 4 5 8 9 11 14 14 14 16 17 20 22 22 23 23 25 26 27 29 30 32 33 32 34 34 36 39 38 40 44 45 46 48 52 56 62 72 88 105
5 8 9 6 2 3 7 8 10 14 14 13 16 18 22 25 24 24 24 25 25 26 26 28 29 31 32 32 33 37 33 37 37 40 43 42 42 47 53 60 69 82 98
2 4 4 3 2 2 4 6 7 13 12 11 14 16 19 23 26 25 25 25 25 26 26 25 27 29 30 30 32 31 34 40 34 36 40 46 46 48 55 59 68 82 94
358 359 1 0 0 360 1 4 7 9 12 10 9 13 15 18 22 23 23 25 25 26 25 25 24 25 27 28 29 32 32 31 36 38 38 45 49 51 54 62 68 79 92
Height
5649 5637 5625 5613 5603 5594 5585 5576 5566 5556 5546 5534 5523 5513 5504 5493 5481 5470 5460 5448 5437 5426 5415 5405 5396 5388 5380 5373 5369 5366 5365 5363 5365 5361 5363 5364 5366 5368 5370 5372 5375 5380 5387
5648 5636 5624 5611 5601 5592 5583 5573 5564 5554 5543 5533 5523 5513 5503 5491 5479 5467 5454 5443 5432 5419 5406 5396 5386 5377 5368 5360 5354 5352 5350 5350 5351 5351 5351 5353 5355 5356 5358 5360 5362 5366 5373
5647 5635 5624 5612 5600 5591 5582 5572 5562 5552 5542 5532 5522 5512 5500 5488 5476 5463 5450 5435 5421 5409 5397 5386 5376 5367 5357 5348 5341 5337 5336 5336 5337 5339 5339 5341 5343 5345 5347 5348 5350 5352 5358
5646 5635 5625 5614 5602 5592 5582 5572 5562 5552 5542 5532 5521 5509 5497 5486 5473 5459 5444 5428 5412 5399 5387 5375 5365 5355 5345 5336 5329 5325 5322 5322 5323 5326 5327 5330 5333 5335 5336 5337 5339 5341 5344
5647 5636 5626 5615 5604 5594 5583 5573 5563 5553 5543 5532 5520 5509 5497 5484 5469 5452 5437 5420 5405 5392 5380 5367 5355 5343 5333 5325 5318 5314 5310 5309 5310 5312 5316 5318 5322 5326 5327 5327 5328 5331 5335
5648 5638 5627 5616 5606 5596 5586 5576 5565 5555 5544 5532 5520 5509 5496 5481 5466 5449 5434 5419 5400 5388 5376 5361 5348 5335 5324 5314 5307 5302 5299 5298 5298 5300 5304 5309 5313 5317 5318 5319 5321 5325 5330
5649 5639 5629 5619 5608 5598 5588 5578 5568 5557 5545 5532 5519 5506 5494 5480 5466 5449 5433 5414 5398 5385 5371 5356 5341 5328 5316 5306 5299 5294 5290 5288 5288 5291 5296 5301 5305 5309 5311 5313 5316 5320 5326
5651 5640 5631 5621 5611 5600 5590 5580 5569 5558 5546 5533 5520 5507 5493 5479 5464 5447 5431 5413 5397 5382 5368 5352 5337 5323 5311 5302 5295 5289 5284 5283 5283 5286 5290 5295 5300 5303 5305 5307 5311 5317 5325
5653 5643 5633 5623 5613 5602 5592 5581 5569 5558 5546 5533 5521 5508 5494 5478 5462 5447 5431 5413 5396 5381 5366 5350 5335 5321 5309 5299 5293 5288 5284 5282 5282 5284 5289 5293 5297 5299 5301 5304 5309 5316 5326
5655 5646 5636 5625 5614 5604 5593 5582 5571 5559 5547 5535 5523 5510 5496 5480 5464 5449 5431 5414 5397 5383 5366 5350 5335 5322 5312 5304 5297 5291 5287 5285 5284 5286 5289 5291 5293 5295 5298 5302 5307 5317 5326
5658 5648 5638 5628 5617 5606 5595 5584 5573 5561 5549 5538 5526 5513 5498 5482 5467 5450 5432 5415 5398 5384 5368 5353 5338 5325 5315 5307 5299 5294 5289 5287 5287 5288 5289 5290 5291 5293 5296 5301 5308 5317 5326
5660 5651 5640 5630 5619 5608 5597 5586 5574 5563 5553 5541 5529 5515 5501 5485 5468 5452 5434 5415 5399 5386 5371 5355 5341 5328 5318 5309 5301 5295 5291 5288 5287 5287 5287 5288 5289 5292 5296 5301 5309 5320 5329
5662 5652 5642 5632 5621 5611 5600 5589 5577 5565 5554 5542 5529 5516 5502 5487 5471 5455 5439 5421 5405 5388 5373 5359 5345 5333 5322 5313 5306 5299 5294 5289 5287 5286 5286 5287 5289 5292 5297 5303 5314 5324 5332
5664 5655 5645 5634 5623 5612 5602 5591 5580 5568 5556 5543 5531 5518 5503 5489 5475 5459 5444 5429 5411 5391 5378 5364 5352 5340 5329 5319 5310 5303 5297 5292 5289 5287 5286 5287 5290 5293 5299 5308 5319 5328 5336
5666 5657 5647 5636 5626 5616 5605 5594 5581 5570 5557 5545 5531 5519 5507 5493 5477 5463 5449 5434 5417 5399 5385 5370 5358 5347 5336 5326 5316 5308 5301 5296 5292 5289 5288 5290 5293 5297 5305 5315 5325 5334 5341
5668 5658 5648 5638 5627 5615 5604 5594 5582 5570 5558 5545 5533 5522 5509 5497 5484 5470 5457 5442 5428 5411 5397 5384 5371 5358 5346 5335 5325 5315 5307 5301 5296 5294 5294 5295 5300 5307 5317 5326 5335 5342 5348
5669 5660 5650 5640 5629 5617 5605 5593 5581 5571 5560 5548 5537 5526 5515 5504 5492 5480 5466 5452 5439 5425 5408 5395 5382 5370 5358 5348 5338 5327 5319 5312 5307 5305 5305 5308 5314 5321 5329 5336 5343 5349 5355
5671 5662 5652 5642 5632 5621 5611 5600 5588 5577 5565 5553 5543 5531 5521 5511 5499 5488 5477 5465 5451 5435 5419 5406 5393 5382 5372 5363 5354 5346 5338 5331 5326 5325 5325 5327 5331 5337 5341 5346 5351 5356 5361
5673 5664 5655 5645 5635 5626 5615 5603 5593 5582 5570 5559 5547 5537 5528 5517 5506 5497 5486 5473 5458 5444 5429 5417 5406 5395 5386 5379 5372 5365 5359 5354 5349 5347 5346 5347 5348 5350 5353 5356 5359 5363 5367
5675 5666 5658 5649 5639 5629 5618 5607 5597 5587 5578 5567 5556 5545 5534 5524 5515 5504 5492 5481 5469 5456 5442 5429 5418 5409 5400 5393 5388 5382 5378 5373 5370 5366 5364 5363 5363 5364 5365 5367 5369 5371 5373
5677 5669 5660 5651 5642 5632 5622 5612 5601 5592 5582 5571 5561 5550 5539 5528 5518 5508 5498 5488 5478 5467 5455 5444 5433 5422 5415 5407 5401 5396 5392 5389 5385 5382 5379 5377 5376 5375 5375 5375 5376 5377 5379
5678 5670 5662 5653 5644 5635 5625 5615 5605 5596 5586 5575 5565 5554 5544 5533 5523 5514 5505 5494 5485 5475 5466 5456 5447 5437 5428 5420 5414 5408 5403 5400 5396 5393 5390 5387 5385 5383 5382 5381 5381 5381 5383
5680 5672 5664 5655 5647 5638 5629 5619 5610 5600 5591 5581 5570 5560 5551 5541 5531 5521 5511 5502 5493 5485 5477 5468 5459 5450 5441 5433 5425 5419 5414 5410 5406 5402 5399 5396 5393 5391 5388 5387 5386 5386 5387
5681 5673 5666 5658 5649 5641 5632 5623 5613 5604 5595 5586 5576 5567 5558 5548 5538 5528 5518 5509 5500 5492 5484 5477 5469 5461 5452 5445 5437 5429 5422 5418 5414 5410 5407 5403 5400 5397 5395 5393 5392 5391 5392
5681 5675 5668 5660 5652 5644 5635 5626 5617 5608 5599 5590 5582 5573 5564 5554 5545 5536 5526 5517 5508 5500 5492 5484 5477 5469 5462 5455 5447 5439 5431 5425 5420 5417 5413 5410 5407 5404 5401 5399 5398 5397 5398
5681 5675 5668 5661 5654 5646 5637 5629 5620 5611 5603 5594 5586 5577 5569 5562 5553 5544 5535 5526 5517 5508 5499 5491 5484 5477 5470 5464 5457 5449 5442 5435 5428 5423 5420 5417 5413 5411 5409 5406 5405 5404 5404